Location: Seattle
(47.6064°N, 122.3308°W)
Time: 00:12:03
(UTC-08:00)

Tiros 1 - Pass Details

Date: 04 December 2020
Orbit: 630 x 663 km, 48.4° (Epoch: 28 January)

Event Time Altitude Azimuth Distance (km) Brightness Sun altitude
Rises 14:02:25 0° 240° (WSW) 2,986 11.7 14.8°
Reaches altitude 10° 14:04:47 10° 236° (WSW) 2,077 11.1 14.6°
Maximum altitude 14:09:31 61° 157° (SSE) 751 8.0 14.2°
Drops below altitude 10° 14:14:15 10° 78° (ENE) 2,080 9.4 13.8°
Sets 14:16:37 0° 75° (ENE) 2,991 10.1 13.6°
